Regional Weather Roundup
Issued by NWS Upton, NY

Home | Current Version | Previous Version | Text Only | Print | Product List | Glossary On
Versions: 1 2 3 4 5 6 7 8 9 10 11 12 13 14 15 16 17 18 19 20 21 22 23 24 25 26
000
ASUS41 KOKX 232205
RWROKX

REGIONAL WEATHER ROUNDUP
NATIONAL WEATHER SERVICE NEW YORK NY
600 PM EDT WED APR 23 2014

NOTE: "FAIR" INDICATES FEW OR NO CLOUDS BELOW 12,000 FEET WITH NO
SIGNIFICANT WEATHER AND/OR OBSTRUCTIONS TO VISIBILITY.

NYZ071-072-176-178-NJZ106-104-232300-
NEW YORK CITY METRO AREA


CITY           SKY/WX    TMP DP  RH WIND       PRES   REMARKS
CENTRAL PARK   MOSUNNY   55  32  41 NW15G30   29.69R
LAGUARDIA APRT MOSUNNY   54  32  43 NW33G39   29.65R
KENNEDY INTL   MOSUNNY   57  32  38 NW29G36   29.65R
NEWARK/LIBERTY MOSUNNY   57  32  38 NW28G41   29.67R
TETERBORO      MOSUNNY   56  34  43 NW20G29   29.67R
$$

NYZ177-179-078>081-232300-
LONG ISLAND NEW YORK

CITY           SKY/WX    TMP DP  RH WIND       PRES   REMARKS
FARMINGDALE    MOSUNNY   57  33  40 NW21G31   29.61R
ISLIP          MOSUNNY   59  33  37 NW28G36   29.58R
SHIRLEY        MOSUNNY   57  35  43 NW24G37   29.60R
WESTHAMPTON    MOSUNNY   55  34  45 NW21G30   29.58R
MONTAUK POINT    N/A     53  40  61 NW13      29.55R
$$

NYZ052-065-067-232300-
HUDSON VALLEY

CITY           SKY/WX    TMP DP  RH WIND       PRES   REMARKS
WHITE PLAINS   MOSUNNY   53  34  48 NW28G36   29.64R
NEWBURGH       NOT AVBL
MONTGOMERY     CLOUDY    47  33  58 NW14G33   29.72R
POUGHKEEPSIE   PTSUNNY   52  33  48 NW16G29   29.68R
ALBANY         CLOUDY    47  33  58 NW21      29.71R
$$

NJZ001-105-106-008-010-013-015-019>022-104-232300-
NEW JERSEY

CITY           SKY/WX    TMP DP  RH WIND       PRES   REMARKS
NEWARK/LIBERTY MOSUNNY   57  32  38 NW28G41   29.67R
TETERBORO      MOSUNNY   56  34  43 NW20G29   29.67R
CALDWELL       MOSUNNY   53  33  46 N18G38    29.70R
MORRISTOWN     MOSUNNY   54  34  47 NW14G38   29.70R
SOMERVILLE     SUNNY     55  33  43 NW18G36   29.70R
LINDEN         FAIR      59  34  39 NW28G38   29.69R
SUSSEX         CLOUDY    51  33  50 N13G25    29.75R
ANDOVER          N/A     48  32  53 N14G28    29.74R
TRENTON        MOSUNNY   56  33  42 N20G35    29.71R
MILLVILLE      PTSUNNY   58  36  43 NW20G30   29.74R
ATLANTIC CITY  MOSUNNY   59  34  39 NW22G33   29.70R
WRIGHTSTOWN    MOSUNNY   58  34  40 NW25G33   29.68R
TOMS RIVER     MOSUNNY   57  34  41 NW18G25   29.68R
BELMAR         PTSUNNY   57  34  41 NW20G37   29.67R
$$

PAZ047>061-062-071-232300-
EASTERN PENNSYLVANIA

CITY           SKY/WX    TMP DP  RH WIND       PRES   REMARKS
PHILADELPHIA   PTSUNNY   59  32  36 NW23      29.75R
ALLENTOWN      PTSUNNY   52  33  48 NW21G26   29.76R
SCRANTON       CLOUDY    45  33  63 NW18G31   29.81R
$$

CTZ002-004>006-009-010-012-RIZ004-006-007-MAZ004-011-015-232300-
SOUTHERN NEW ENGLAND
 IN CT

CITY           SKY/WX    TMP DP  RH WIND       PRES   REMARKS
BRADLEY INTL   PTSUNNY   53  33  46 NW23G36   29.57R
HARTFORD       CLOUDY    54  33  45 NW18G36   29.58R
DANBURY        PTSUNNY   51  33  50 NW16G28   29.65R
WTRBRY/OXFORD  NOT AVBL
BRIDGEPORT     MOSUNNY   57  33  40 NW28G37   29.59R
MERIDEN        CLOUDY    53  32  44 NW20G38   29.59R
NEW HAVEN      PTSUNNY   56  34  43 NW18G33   29.60R
CHESTER        CLOUDY    54  34  47 NW18G25   29.56R
GROTON         LGT RAIN  54  39  57 NW21G30   29.52R
WILLIMANTIC    CLOUDY    54  34  46 NW20G31   29.55R

 IN RI

CITY           SKY/WX    TMP DP  RH WIND       PRES   REMARKS
PROVIDENCE     PTSUNNY   54  34  46 N15G30    29.50R
BLOCK ISLAND   CLOUDY    54  37  54 NW16G24   29.51R
WESTERLY       CLOUDY    56  36  47 NW25G35   29.52R

 IN MA

CITY           SKY/WX    TMP DP  RH WIND       PRES   REMARKS
BOSTON         CLOUDY    51  34  52 NW25G32   29.49R
WORCESTER      CLOUDY    48  32  53 NW17G32   29.53R
WESTFIELD      CLOUDY    52  33  48 NW23G30   29.58R
PROVINCETOWN   CLOUDY    45  41  87 MISG      29.46R
NANTUCKET      LGT RAIN  48  44  86 NW14G24   29.44R
$$

ANZ330-335-338-340-345-350-353-355-232300-
COASTAL MARINE OBSERVATIONS


STATION/POSITION TIME  SKY/WX   TEMP    WIND        PRES    VSBY  WAVE
                                AIR SEA DIR/SP/G                  HT/PER
                 (UTC)          (F)     (DEG/KT/KT) (MB)    (MI)  (FT/S)
NY HARB ENTRANCE 2200            51 46  VRB 19/ 23  1003.2
4S FIRE IS       2100               45                N/A           3/ 8
23SW MTP         2200            49 43  300/ 16/ 17 1000.0          4/ 4
HUDSON CANYON    2100            49 45  300/ 16/ 17 1001.7          5/ 6
EXECUTION ROCKS  2200            54 45  310/ 21/ 31   N/A
WESTERN LI SOUND 2200            54     320/ 19/ 27   N/A           2/ 3
CENTRAL LI SOUND 2100            52 44  330/ 21/ 27   N/A           3/ 4
EASTERN LI SOUND NOT AVBL
ROBBINS REEF     2200            55     320/ 19/ 25   N/A
$$


>>>>>>>>>>>>>>>>>>>>>>>>>>>> KEY <<<<<<<<<<<<<<<<<<<<<<<<<<<
>                                                          <
>     SKY/WX - SKY CONDITION/PRESENT WEATHER               <
>     TMP    - TEMPERATURE IN FAHRENHEIT                   <
>     DP     - DEWPOINT IN FAHRENHEIT                      <
>     RH     - RELATIVE HUMIDITY IN PERCENT                <
>     WIND   - DIRECTION AND SPEED IN MPH                  <
>     PRES   - MEAN SEA LEVEL PRESSURE IN INCHES OF HG     <
>     WCI    - WIND CHILL INDEX                            <
>     VSB    - VISIBILITY IN MILES                         <
>     HX     - HEAT INDEX                                  <
>     TC     - TEMPERATURE IN CELSIUS                      <
>     VRB    - VARIABLE WIND DIRECTION                     <
>                                                          <
>>>>>>>>>>>>>>>>>>>>>>>>>>>> KEY <<<<<<<<<<<<<<<<<<<<<<<<<<<





USA.gov is the U.S. government's official web portal to all federal, state and local government web resources and services.